Time,TemperatureF,DewpointF,PressureIn,WindDirection,WindDirectionDegrees,WindSpeedMPH,WindSpeedGustMPH,Humidity,HourlyPrecipIn,Conditions,Clouds,dailyrainin,SoftwareType,DateUTC
2013-04-09 00:13:00,37.7,28.0,30.05,SSW,195,8.0,17.0,69,0.00,,,0.00,weatherlink.com 1.10,2013-04-09 04:13:00,
2013-04-09 00:28:00,38.1,28.0,30.03,SW,226,8.0,17.0,68,0.00,,,0.00,weatherlink.com 1.10,2013-04-09 04:28:00,
2013-04-09 00:43:00,37.6,28.0,30.03,SW,217,9.0,21.0,69,0.00,,,0.00,weatherlink.com 1.10,2013-04-09 04:43:00,
2013-04-09 00:58:00,37.8,28.0,30.03,SSW,202,11.0,21.0,69,0.00,,,0.00,weatherlink.com 1.10,2013-04-09 04:58:00,
2013-04-09 01:13:00,37.7,28.0,30.03,SSW,208,5.0,16.0,69,0.00,,,0.00,weatherlink.com 1.10,2013-04-09 05:13:00,
2013-04-09 01:28:00,37.5,28.0,30.03,SSW,210,14.0,18.0,69,0.00,,,0.00,weatherlink.com 1.10,2013-04-09 05:28:00,
2013-04-09 01:43:00,37.8,28.0,30.03,SSW,209,7.0,17.0,69,0.00,,,0.00,weatherlink.com 1.10,2013-04-09 05:43:00,
2013-04-09 01:58:00,37.3,29.0,30.02,SSW,192,6.0,13.0,73,0.00,,,0.00,weatherlink.com 1.10,2013-04-09 05:58:00,
2013-04-09 02:13:00,36.3,30.0,30.01,SSW,209,7.0,19.0,79,0.01,,,0.01,weatherlink.com 1.10,2013-04-09 06:13:00,
2013-04-09 02:28:00,35.5,31.0,30.00,SSW,203,5.0,17.0,83,0.02,,,0.02,weatherlink.com 1.10,2013-04-09 06:28:00,
2013-04-09 02:43:00,35.6,31.0,29.99,SSW,201,11.0,24.0,84,0.03,,,0.03,weatherlink.com 1.10,2013-04-09 06:43:00,
2013-04-09 02:58:00,34.6,31.0,29.98,SSW,203,12.0,20.0,87,0.09,,,0.09,weatherlink.com 1.10,2013-04-09 06:58:00,
2013-04-09 03:13:00,34.1,32.0,29.98,South,182,14.0,20.0,90,0.12,,,0.13,weatherlink.com 1.10,2013-04-09 07:13:00,
2013-04-09 03:28:00,34.0,32.0,29.98,SSW,200,12.0,19.0,91,0.16,,,0.18,weatherlink.com 1.10,2013-04-09 07:28:00,
2013-04-09 03:43:00,33.8,32.0,29.96,SW,224,10.0,24.0,92,0.18,,,0.21,weatherlink.com 1.10,2013-04-09 07:43:00,
2013-04-09 03:58:00,33.7,32.0,29.95,SSW,202,15.0,23.0,93,0.14,,,0.24,weatherlink.com 1.10,2013-04-09 07:58:00,
2013-04-09 04:13:00,33.6,32.0,29.93,South,180,17.0,32.0,93,0.13,,,0.26,weatherlink.com 1.10,2013-04-09 08:13:00,
2013-04-09 04:44:00,33.5,32.0,29.92,SSW,194,15.0,25.0,94,0.11,,,0.32,weatherlink.com 1.10,2013-04-09 08:44:00,
2013-04-09 04:58:00,33.7,32.0,29.91,WSW,245,12.0,28.0,94,0.13,,,0.37,weatherlink.com 1.10,2013-04-09 08:58:00,
2013-04-09 05:14:00,33.7,32.0,29.91,SSW,212,8.0,25.0,94,0.14,,,0.40,weatherlink.com 1.10,2013-04-09 09:14:00,
2013-04-09 05:44:00,33.5,32.0,29.91,SW,227,12.0,23.0,94,0.10,,,0.43,weatherlink.com 1.10,2013-04-09 09:44:00,
2013-04-09 06:14:00,34.2,33.0,29.89,SW,234,7.0,25.0,94,0.05,,,0.45,weatherlink.com 1.10,2013-04-09 10:14:00,
2013-04-09 06:29:00,34.4,33.0,29.88,SW,220,6.0,17.0,94,0.04,,,0.45,weatherlink.com 1.10,2013-04-09 10:29:00,
2013-04-09 07:14:00,35.0,34.0,29.87,SSW,193,15.0,22.0,95,0.08,,,0.53,weatherlink.com 1.10,2013-04-09 11:14:00,
2013-04-09 07:29:00,35.0,34.0,29.87,SSW,202,12.0,19.0,94,0.08,,,0.53,weatherlink.com 1.10,2013-04-09 11:29:00,
2013-04-09 07:44:00,35.4,34.0,29.88,SW,214,10.0,19.0,95,0.03,,,0.54,weatherlink.com 1.10,2013-04-09 11:44:00,
2013-04-09 08:14:00,35.5,34.0,29.87,SSW,201,4.0,11.0,95,0.01,,,0.54,weatherlink.com 1.10,2013-04-09 12:14:00,
2013-04-09 08:29:00,35.4,34.0,29.86,SW,223,4.0,13.0,95,0.01,,,0.54,weatherlink.com 1.10,2013-04-09 12:29:00,
2013-04-09 08:44:00,35.9,35.0,29.86,South,187,3.0,14.0,95,0.00,,,0.54,weatherlink.com 1.10,2013-04-09 12:44:00,
2013-04-09 08:59:00,36.4,35.0,29.86,SSW,203,5.0,12.0,95,0.00,,,0.54,weatherlink.com 1.10,2013-04-09 12:59:00,
2013-04-09 09:14:00,35.8,35.0,29.86,SSW,198,4.0,11.0,95,0.00,,,0.54,weatherlink.com 1.10,2013-04-09 13:14:00,
2013-04-09 10:14:00,36.9,36.0,29.88,South,188,1.0,5.0,95,0.05,,,0.59,weatherlink.com 1.10,2013-04-09 14:14:00,
2013-04-09 10:29:00,36.7,35.0,29.89,South,190,4.0,5.0,95,0.06,,,0.61,weatherlink.com 1.10,2013-04-09 14:29:00,
2013-04-09 10:44:00,36.3,35.0,29.89,SSW,200,3.0,5.0,95,0.07,,,0.63,weatherlink.com 1.10,2013-04-09 14:44:00,
2013-04-09 10:59:00,36.6,36.0,29.90,South,187,3.0,4.0,96,0.07,,,0.64,weatherlink.com 1.10,2013-04-09 14:59:00,
2013-04-09 11:14:00,38.7,38.0,29.89,South,187,0.0,8.0,96,0.06,,,0.65,weatherlink.com 1.10,2013-04-09 15:14:00,
2013-04-09 11:29:00,39.3,38.0,29.89,SSW,198,0.0,5.0,96,0.04,,,0.65,weatherlink.com 1.10,2013-04-09 15:29:00,
2013-04-09 11:44:00,39.3,38.0,29.89,NE,43,2.0,5.0,96,0.02,,,0.65,weatherlink.com 1.10,2013-04-09 15:44:00,
2013-04-09 11:59:00,39.3,38.0,29.89,North,355,3.0,8.0,96,0.01,,,0.65,weatherlink.com 1.10,2013-04-09 15:59:00,
2013-04-09 12:29:00,38.2,37.0,29.90,NNW,331,5.0,9.0,96,0.00,,,0.65,weatherlink.com 1.10,2013-04-09 16:29:00,
2013-04-09 12:44:00,37.6,37.0,29.93,North,350,5.0,12.0,96,0.00,,,0.65,weatherlink.com 1.10,2013-04-09 16:44:00,
2013-04-09 12:59:00,36.6,36.0,29.93,NNW,327,3.0,11.0,96,0.00,,,0.65,weatherlink.com 1.10,2013-04-09 16:59:00,
2013-04-09 13:14:00,35.8,35.0,29.94,NNE,24,4.0,16.0,96,0.00,,,0.65,weatherlink.com 1.10,2013-04-09 17:14:00,
2013-04-09 13:29:00,35.3,34.0,29.96,NNE,24,4.0,13.0,96,0.00,,,0.65,weatherlink.com 1.10,2013-04-09 17:29:00,
2013-04-09 13:44:00,34.8,34.0,29.96,NNE,24,2.0,11.0,96,0.00,,,0.65,weatherlink.com 1.10,2013-04-09 17:44:00,
2013-04-09 14:14:00,34.7,34.0,29.97,NNW,343,5.0,15.0,96,0.00,,,0.65,weatherlink.com 1.10,2013-04-09 18:14:00,
2013-04-09 14:29:00,34.5,34.0,29.97,North,5,3.0,12.0,96,0.00,,,0.65,weatherlink.com 1.10,2013-04-09 18:29:00,
2013-04-09 14:44:00,34.2,33.0,29.96,NNW,334,6.0,13.0,96,0.00,,,0.65,weatherlink.com 1.10,2013-04-09 18:44:00,
2013-04-09 14:59:00,33.9,33.0,29.97,North,360,3.0,14.0,96,0.00,,,0.65,weatherlink.com 1.10,2013-04-09 18:59:00,
2013-04-09 15:14:00,33.6,33.0,29.97,NNE,15,6.0,12.0,96,0.00,,,0.65,weatherlink.com 1.10,2013-04-09 19:14:00,
2013-04-09 15:29:00,33.6,33.0,29.98,North,360,4.0,11.0,97,0.00,,,0.65,weatherlink.com 1.10,2013-04-09 19:29:00,
2013-04-09 15:44:00,33.7,33.0,29.98,NNW,342,3.0,11.0,97,0.00,,,0.65,weatherlink.com 1.10,2013-04-09 19:44:00,
2013-04-09 15:59:00,33.5,33.0,29.98,NNE,16,3.0,13.0,96,0.00,,,0.65,weatherlink.com 1.10,2013-04-09 19:59:00,
2013-04-09 16:14:00,33.3,33.0,29.98,North,9,6.0,10.0,97,0.00,,,0.65,weatherlink.com 1.10,2013-04-09 20:14:00,
2013-04-09 16:29:00,33.4,33.0,29.97,North,9,5.0,11.0,97,0.00,,,0.65,weatherlink.com 1.10,2013-04-09 20:29:00,
2013-04-09 16:44:00,33.4,33.0,29.96,NNE,18,3.0,8.0,97,0.00,,,0.65,weatherlink.com 1.10,2013-04-09 20:44:00,
2013-04-09 16:59:00,33.6,33.0,29.97,North,9,3.0,8.0,97,0.00,,,0.65,weatherlink.com 1.10,2013-04-09 20:59:00,
2013-04-09 17:14:00,33.7,33.0,29.97,North,5,1.0,3.0,97,0.00,,,0.65,weatherlink.com 1.10,2013-04-09 21:14:00,
2013-04-09 17:29:00,33.4,33.0,29.97,North,360,7.0,9.0,97,0.00,,,0.65,weatherlink.com 1.10,2013-04-09 21:29:00,
2013-04-09 17:44:00,33.5,33.0,29.99,NNW,327,2.0,8.0,97,0.00,,,0.65,weatherlink.com 1.10,2013-04-09 21:44:00,
2013-04-09 17:59:00,33.4,33.0,30.01,North,5,4.0,9.0,97,0.00,,,0.65,weatherlink.com 1.10,2013-04-09 21:59:00,
2013-04-09 18:14:00,33.3,33.0,30.02,NNE,14,1.0,9.0,97,0.00,,,0.65,weatherlink.com 1.10,2013-04-09 22:14:00,
2013-04-09 18:29:00,33.3,33.0,30.02,NNE,14,6.0,7.0,97,0.00,,,0.65,weatherlink.com 1.10,2013-04-09 22:29:00,
2013-04-09 18:44:00,33.2,33.0,30.02,NNW,336,8.0,10.0,97,0.00,,,0.65,weatherlink.com 1.10,2013-04-09 22:44:00,
2013-04-09 19:00:00,33.1,32.0,30.02,NNW,336,2.0,8.0,97,0.00,,,0.65,weatherlink.com 1.10,2013-04-09 23:00:00,
2013-04-09 19:14:00,32.9,32.0,30.01,NNW,348,2.0,8.0,97,0.00,,,0.65,weatherlink.com 1.10,2013-04-09 23:14:00,
2013-04-09 19:29:00,32.9,32.0,30.02,North,355,2.0,9.0,97,0.00,,,0.65,weatherlink.com 1.10,2013-04-09 23:29:00,
2013-04-09 19:44:00,32.9,32.0,30.04,NNE,20,5.0,8.0,97,0.00,,,0.65,weatherlink.com 1.10,2013-04-09 23:44:00,
2013-04-09 19:59:00,33.0,32.0,30.04,NNW,333,3.0,11.0,97,0.00,,,0.65,weatherlink.com 1.10,2013-04-09 23:59:00,
2013-04-09 20:14:00,33.1,32.0,30.03,NNW,333,5.0,9.0,97,0.00,,,0.65,weatherlink.com 1.10,2013-04-10 00:14:00,
2013-04-09 20:29:00,33.1,32.0,30.03,NW,321,0.0,7.0,97,0.00,,,0.65,weatherlink.com 1.10,2013-04-10 00:29:00,
2013-04-09 20:44:00,33.2,33.0,30.04,NW,316,0.0,2.0,97,0.00,,,0.65,weatherlink.com 1.10,2013-04-10 00:44:00,
2013-04-09 20:59:00,33.2,33.0,30.04,NW,316,0.0,2.0,97,0.00,,,0.65,weatherlink.com 1.10,2013-04-10 00:59:00,
2013-04-09 21:14:00,33.2,33.0,30.04,NW,316,0.0,1.0,97,0.00,,,0.65,weatherlink.com 1.10,2013-04-10 01:14:00,
2013-04-09 21:29:00,33.2,33.0,30.03,NW,314,0.0,2.0,97,0.00,,,0.65,weatherlink.com 1.10,2013-04-10 01:29:00,
2013-04-09 21:44:00,33.2,33.0,30.02,West,268,1.0,3.0,97,0.00,,,0.65,weatherlink.com 1.10,2013-04-10 01:44:00,
2013-04-09 21:59:00,33.3,33.0,30.02,West,268,0.0,0.0,97,0.00,,,0.65,weatherlink.com 1.10,2013-04-10 01:59:00,
2013-04-09 22:14:00,33.5,33.0,30.02,WNW,284,0.0,4.0,97,0.00,,,0.65,weatherlink.com 1.10,2013-04-10 02:14:00,
2013-04-09 22:29:00,33.6,33.0,30.00,SW,219,2.0,4.0,97,0.00,,,0.65,weatherlink.com 1.10,2013-04-10 02:29:00,
2013-04-09 22:44:00,33.8,33.0,30.00,SW,221,0.0,3.0,97,0.00,,,0.65,weatherlink.com 1.10,2013-04-10 02:44:00,
2013-04-09 22:59:00,33.9,33.0,30.00,SSW,213,0.0,0.0,97,0.00,,,0.65,weatherlink.com 1.10,2013-04-10 02:59:00,
2013-04-09 23:14:00,34.1,33.0,29.99,SSW,213,0.0,2.0,97,0.00,,,0.65,weatherlink.com 1.10,2013-04-10 03:14:00,
2013-04-09 23:29:00,34.2,34.0,29.99,ESE,115,0.0,3.0,97,0.00,,,0.65,weatherlink.com 1.10,2013-04-10 03:29:00,
2013-04-09 23:44:00,34.6,34.0,29.98,East,80,0.0,2.0,97,0.00,,,0.65,weatherlink.com 1.10,2013-04-10 03:44:00,